Weather in Zyambaygurt

Russia / Udmurt Republic     56°45′34″N   51°37′14″E
temp.,
°C
wind,
m/s
gust,
m/s
humid.,
%
clouds,
%
prec.,
mm/h
press.,
hPa
HPBL,
m
14 may, fri
fri1401:00+17sse3965100 0.0 1023145
04:00+15s347235 0.1 102461
07:00+18sse267475 1.1 1023166
10:00+24s464733 1.3 1022671
13:00+27s583520 0.0 10211616
16:00+27s6937100 0.0 10201600
19:00+23s41050100 0.0 1019268
22:00+18ssw38630 0.0 1019125
15 may, sat
sat1501:00+16ssw3871100 0.0 1019126
04:00+15ssw347614 0.0 102061
07:00+18ssw2472100 0.0 1020141
10:00+24s4651100 0.0 1019591
13:00+27ssw6838100 0.0 1019978
16:00+27sw61038100 0.0 10181090
19:00+24ssw5104972 0.0 1018342
22:00+19ssw414615 0.0 1018258
16 may, sun
sun1601:00+17ssw411595 0.0 1018184
04:00+16ssw412575 0.0 1018189
07:00+19ssw412565 0.0 1018297
10:00+25ssw610398 0.0 1018754
13:00+28ssw610325 0.0 10171725
16:00+28sw6103529 0.0 10171825
19:00+24sw3653100 0.0 1016125
22:00+20ssw41062100 0.0 1015144
17 may, mon
mon1701:00+17sw387072 0.0 1016134
04:00+15wsw228572 0.0 101720
07:00+19wsw237779 0.0 1018157
10:00+24wsw3556100 0.0 1018981
13:00+27wsw574062 0.0 10171840
16:00+27w474018 0.0 10171862
19:00+24wsw235713 0.0 101760
22:00+18nw1172100 0.2 101711
18 may, tue
tue1801:00+16n1183100 0.8 101811
04:00+15s228681 0.9 101815
07:00+19sse117810 0.5 101897
10:00+24wsw225364 0.5 1018575
13:00+28w243761 0.0 10171744
16:00+29w35305 0.0 10173463
19:00+26nw11459 0.0 101611
22:00+20ene11535 0.0 101811